This is the latest recevied weather packets stored in our database for station/object W4JCW. If no packets are shown the sender has not sent any weather packets the latest 10 day(s).
| Time | Temp. | Humidity | Pressure | Rain* | Wind** | Luminosity | Snow |
|---|---|---|---|---|---|---|---|
| 1777714906 | 13.33° C | 96% | 1010.5 hPa | 1.78 mm | - | 0 W/m² | - |
| 1777714604 | 13.33° C | 96% | 1010.2 hPa | 1.78 mm | - | 0 W/m² | - |
| 1777714301 | 13.33° C | 96% | 1010.3 hPa | 1.78 mm | - | 0 W/m² | - |
| 1777713999 | 13.33° C | 96% | 1010.4 hPa | 1.78 mm | - | 0 W/m² | - |
| 1777713697 | 13.33° C | 96% | 1010.4 hPa | 2.29 mm | - | 0 W/m² | - |
| 1777713393 | 13.33° C | 96% | 1010.3 hPa | 2.29 mm | - | 0 W/m² | - |
| 1777713090 | 13.33° C | 96% | 1010.4 hPa | 2.29 mm | - | 0 W/m² | - |
| 1777712787 | 13.33° C | 96% | 1010.3 hPa | 1.78 mm | - | 0 W/m² | - |
| 1777712484 | 13.33° C | 96% | 1010.3 hPa | 2.29 mm | - | 0 W/m² | - |
| 1777712180 | 13.33° C | 95% | 1010.2 hPa | 1.78 mm | - | 0 W/m² | - |
| 1777711877 | 13.33° C | 95% | 1010.1 hPa | 1.78 mm | - | 0 W/m² | - |
| 1777711575 | 13.33° C | 95% | 1010.1 hPa | 1.78 mm | - | 0 W/m² | - |
| 1777711269 | 13.33° C | 95% | 1010.3 hPa | 1.27 mm | - | 0 W/m² | - |
| 1777710966 | 13.33° C | 95% | 1010.2 hPa | 1.78 mm | - | 0 W/m² | - |
| 1777710663 | 13.33° C | 95% | 1010.1 hPa | 0.51 mm | - | 0 W/m² | - |
| 1777710360 | 13.33° C | 95% | 1010.3 hPa | 0.51 mm | - | 0 W/m² | - |
| 1777710057 | 13.89° C | 95% | 1010.4 hPa | 1.27 mm | - | 0 W/m² | - |
| 1777709755 | 13.33° C | 95% | 1010.1 hPa | 1.27 mm | - | 0 W/m² | - |
| 1777709452 | 13.33° C | 94% | 1010.3 hPa | 0.51 mm | - | 0 W/m² | - |
| 1777709149 | 13.33° C | 94% | 1010.1 hPa | 0.51 mm | - | 0 W/m² | - |
| 1777708847 | 13.33° C | 94% | 1010.2 hPa | 0.51 mm | - | 0 W/m² | - |
| 1777708544 | 13.33° C | 94% | 1010.2 hPa | 0.51 mm | - | 0 W/m² | - |
| 1777708242 | 13.33° C | 93% | 1010.2 hPa | 0.51 mm | - | 0 W/m² | - |
| 1777707940 | 13.33° C | 93% | 1010.4 hPa | 0.51 mm | - | 0 W/m² | - |
| 1777707636 | 13.33° C | 93% | 1009.9 hPa | 0 mm | - | 0 W/m² | - |
* Rain latest hour (hover to see other rain measurements)
** Current wind speed in m/s (hover to see current wind gust speed)